EN

Hourly Weather Outram

Today, 2 March, Tuesday

Time Temperature Precipitation Wind Pressure Humidity
00:00 +15°C° 0 mm 2 mps 745 mmHg 97%
01:00 +15°C° 0 mm 2 mps 744 mmHg 96%
02:00 +15°C° 0 mm 2 mps 744 mmHg 96%
03:00 +15°C° 0 mm 2 mps 744 mmHg 95%
04:00 +15°C° 0 mm 2 mps 743 mmHg 95%
05:00 +15°C° 0 mm 2 mps 743 mmHg 93%
06:00 +17°C° 0 mm 2 mps 743 mmHg 85%
07:00 +19°C° 0 mm 2 mps 743 mmHg 77%
08:00 +22°C° 0 mm 1 mps 742 mmHg 69%
09:00 +23°C° 0 mm 2 mps 742 mmHg 62%
10:00 +25°C° 0 mm 2 mps 741 mmHg 54%
11:00 +27°C° 0 mm 3 mps 741 mmHg 47%
12:00 +27°C° 0 mm 3 mps 741 mmHg 46%
13:00 +27°C° 0 mm 3 mps 740 mmHg 46%
14:00 +28°C° 0 mm 3 mps 740 mmHg 46%
15:00 +26°C° 0.3 mm 3 mps 739 mmHg 54%
16:00 +25°C° 0.3 mm 3 mps 739 mmHg 63%
17:00 +23°C° 0.3 mm 2 mps 739 mmHg 72%
18:00 +20°C° 0.2 mm 2 mps 739 mmHg 76%
19:00 +20°C° 0.2 mm 1 mps 739 mmHg 80%
20:00 +18°C° 0.2 mm 1 mps 739 mmHg 85%
21:00 +16°C° 0 mm 1 mps 739 mmHg 86%
22:00 +16°C° 0 mm 1 mps 739 mmHg 87%
23:00 +15°C° 0 mm 1 mps 739 mmHg 88%

Tomorrow, 3 March, Wednesday

Time Temperature Precipitation Wind Pressure Humidity
00:00 +15°C° 0 mm 1 mps 738 mmHg 88%
01:00 +15°C° 0 mm 1 mps 738 mmHg 87%
02:00 +14°C° 0 mm 1 mps 737 mmHg 87%
03:00 +14°C° 0 mm 2 mps 737 mmHg 85%
04:00 +15°C° 0 mm 2 mps 737 mmHg 83%
05:00 +15°C° 0 mm 2 mps 736 mmHg 81%
06:00 +16°C° 0 mm 2 mps 736 mmHg 75%
07:00 +18°C° 0 mm 2 mps 736 mmHg 68%
08:00 +19°C° 0 mm 3 mps 737 mmHg 61%
09:00 +21°C° 0 mm 3 mps 736 mmHg 54%
10:00 +23°C° 0 mm 4 mps 736 mmHg 48%
11:00 +25°C° 0 mm 5 mps 736 mmHg 41%
12:00 +25°C° 0 mm 5 mps 735 mmHg 41%
13:00 +25°C° 0 mm 5 mps 735 mmHg 41%
14:00 +24°C° 0 mm 6 mps 735 mmHg 40%
15:00 +23°C° 0.1 mm 5 mps 735 mmHg 47%
16:00 +22°C° 0.1 mm 4 mps 735 mmHg 53%
17:00 +20°C° 0.1 mm 3 mps 736 mmHg 59%
18:00 +18°C° 0 mm 3 mps 736 mmHg 63%
19:00 +16°C° 0 mm 3 mps 737 mmHg 66%
20:00 +14°C° 0 mm 2 mps 738 mmHg 70%
21:00 +14°C° 0 mm 2 mps 738 mmHg 72%
22:00 +12°C° 0 mm 3 mps 739 mmHg 74%
23:00 +11°C° 0 mm 3 mps 739 mmHg 76%

Day after tomorrow, 4 March, Thursday

Time Temperature Precipitation Wind Pressure Humidity
00:00 +10°C° 0 mm 3 mps 739 mmHg 80%
01:00 +10°C° 0 mm 3 mps 740 mmHg 84%
02:00 +9°C° 0 mm 3 mps 740 mmHg 87%
03:00 +9°C° 0 mm 3 mps 740 mmHg 89%
04:00 +9°C° 0 mm 3 mps 740 mmHg 90%
05:00 +9°C° 0 mm 3 mps 740 mmHg 92%
06:00 +10°C° 0 mm 2 mps 740 mmHg 84%
07:00 +12°C° 0 mm 2 mps 741 mmHg 77%
08:00 +14°C° 0 mm 2 mps 741 mmHg 70%
09:00 +14°C° 0.3 mm 2 mps 741 mmHg 71%
10:00 +15°C° 0.3 mm 2 mps 740 mmHg 72%
11:00 +15°C° 0.3 mm 1 mps 740 mmHg 72%
12:00 +15°C° 0.6 mm 2 mps 740 mmHg 77%
13:00 +13°C° 0.6 mm 3 mps 739 mmHg 82%
14:00 +12°C° 0.6 mm 3 mps 739 mmHg 87%
15:00 +12°C° 0.3 mm 4 mps 738 mmHg 88%
16:00 +12°C° 0.3 mm 4 mps 738 mmHg 89%
17:00 +12°C° 0.3 mm 4 mps 738 mmHg 90%
18:00 +11°C° 0 mm 4 mps 737 mmHg 91%
19:00 +11°C° 0 mm 4 mps 737 mmHg 92%
20:00 +10°C° 0 mm 4 mps 737 mmHg 92%
21:00 +10°C° 0 mm 4 mps 736 mmHg 91%
22:00 +9°C° 0 mm 3 mps 735 mmHg 89%
23:00 +9°C° 0 mm 3 mps 735 mmHg 88%

5 March, Friday

Time Temperature Precipitation Wind Pressure Humidity
00:00 +9°C° 0 mm 3 mps 734 mmHg 82%
01:00 +9°C° 0 mm 3 mps 733 mmHg 76%
02:00 +10°C° 0 mm 3 mps 733 mmHg 69%
03:00 +10°C° 0 mm 3 mps 733 mmHg 70%
04:00 +10°C° 0 mm 2 mps 733 mmHg 71%
05:00 +10°C° 0 mm 2 mps 732 mmHg 71%
06:00 +12°C° 0 mm 2 mps 732 mmHg 69%
07:00 +13°C° 0 mm 2 mps 732 mmHg 68%
08:00 +13°C° 0 mm 1 mps 733 mmHg 66%
09:00 +15°C° 0 mm 1 mps 733 mmHg 63%
10:00 +16°C° 0 mm 1 mps 733 mmHg 59%
11:00 +19°C° 0 mm 1 mps 733 mmHg 56%
12:00 +18°C° 0.6 mm 2 mps 732 mmHg 62%
13:00 +17°C° 0.6 mm 2 mps 732 mmHg 69%
14:00 +17°C° 0.6 mm 2 mps 732 mmHg 75%
15:00 +15°C° 1.1 mm 2 mps 732 mmHg 81%
16:00 +14°C° 1.1 mm 2 mps 732 mmHg 87%
17:00 +12°C° 1.1 mm 2 mps 732 mmHg 93%
18:00 +10°C° 0.2 mm 2 mps 733 mmHg 94%
19:00 +10°C° 0.2 mm 1 mps 734 mmHg 94%
20:00 +9°C° 0.2 mm 1 mps 734 mmHg 95%
21:00 +9°C° 0.2 mm 1 mps 735 mmHg 95%
22:00 +9°C° 0.2 mm 1 mps 735 mmHg 95%
23:00 +8°C° 0.2 mm 1 mps 736 mmHg 95%

6 March, Saturday

Time Temperature Precipitation Wind Pressure Humidity
00:00 +8°C° 0 mm 1 mps 736 mmHg 94%
01:00 +8°C° 0 mm 1 mps 736 mmHg 94%
02:00 +7°C° 0 mm 1 mps 736 mmHg 94%
03:00 +7°C° 0 mm 1 mps 736 mmHg 93%
04:00 +7°C° 0 mm 1 mps 736 mmHg 93%
05:00 +7°C° 0 mm 1 mps 736 mmHg 93%
06:00 +9°C° 0 mm 1 mps 736 mmHg 88%
07:00 +11°C° 0 mm 1 mps 737 mmHg 83%
08:00 +13°C° 0 mm 1 mps 737 mmHg 78%
09:00 +14°C° 0.2 mm 1 mps 737 mmHg 73%
10:00 +15°C° 0.2 mm 1 mps 737 mmHg 68%
11:00 +16°C° 0.2 mm 2 mps 737 mmHg 63%
12:00 +16°C° 0.5 mm 2 mps 737 mmHg 67%
13:00 +16°C° 0.5 mm 2 mps 737 mmHg 71%
14:00 +15°C° 0.5 mm 2 mps 737 mmHg 74%
15:00 +15°C° 0.4 mm 2 mps 737 mmHg 77%
16:00 +14°C° 0.4 mm 2 mps 737 mmHg 79%
17:00 +14°C° 0.4 mm 1 mps 737 mmHg 82%
18:00 +12°C° 0.1 mm 1 mps 738 mmHg 86%
19:00 +10°C° 0.1 mm 1 mps 739 mmHg 90%
20:00 +9°C° 0.1 mm 1 mps 739 mmHg 95%
21:00 +8°C° 0 mm 1 mps 740 mmHg 95%
22:00 +8°C° 0 mm 1 mps 740 mmHg 95%
23:00 +8°C° 0 mm 1 mps 740 mmHg 95%

7 March, Sunday

Time Temperature Precipitation Wind Pressure Humidity
00:00 +7°C° 0 mm 2 mps 740 mmHg 95%
01:00 +7°C° 0 mm 2 mps 739 mmHg 95%
02:00 +7°C° 0 mm 2 mps 739 mmHg 95%
03:00 +7°C° 0 mm 3 mps 739 mmHg 95%
04:00 +7°C° 0 mm 3 mps 739 mmHg 96%
05:00 +7°C° 0 mm 3 mps 739 mmHg 96%
06:00 +6°C° 0.6 mm 4 mps 740 mmHg 95%
07:00 +7°C° 0.6 mm 4 mps 740 mmHg 95%
08:00 +7°C° 0.6 mm 5 mps 740 mmHg 95%
09:00 +8°C° 0.3 mm 5 mps 740 mmHg 88%
10:00 +9°C° 0.3 mm 5 mps 740 mmHg 82%
11:00 +10°C° 0.3 mm 6 mps 740 mmHg 75%
12:00 +9°C° 0.8 mm 5 mps 740 mmHg 81%
13:00 +8°C° 0.8 mm 5 mps 740 mmHg 87%
14:00 +7°C° 0.8 mm 5 mps 740 mmHg 93%
15:00 +7°C° 0.3 mm 6 mps 740 mmHg 91%
16:00 +7°C° 0.3 mm 6 mps 741 mmHg 88%
17:00 +6°C° 0.3 mm 7 mps 741 mmHg 85%
18:00 +5°C° 0.1 mm 6 mps 742 mmHg 87%
19:00 +4°C° 0.1 mm 6 mps 743 mmHg 90%
20:00 +5°C° 0.1 mm 5 mps 743 mmHg 92%
21:00 +5°C° 0.1 mm 5 mps 744 mmHg 93%
22:00 +5°C° 0.1 mm 5 mps 744 mmHg 93%
23:00 +3°C° 0.1 mm 6 mps 744 mmHg 94%
Show more

We Need Your Consent

Meteoprog and our Service Providers may store and access personal data such as cookies, device identifiers or other similar technologies on your device and process such data to personalise content and ads, as well as provide social media features and to analyse the traffic.

  • Store and/or access information on your device

    Cookies, device identifiers or other information can be stored or accessed on your device for the purposes indicated above.

  • Personalised ads and content, ad and content measurement, audience insights, and products development

    Ads and content can be personalised based on a profile. More data can be added to better personalise ads and content. Ad and content performance can be measured. Insights about the audience who saw the ads and content can be derived. Such data can be used to develop or improve user’s experience, systems and software.

By clicking ‘I Agree’ you will allow the use of indicated cookies, device identifiers, web beacons or other similar technologies. Your settings can be changed in the browser on your device.

For certain purposes, legitimate interests may be relied on, rather than consent. You can read more about this in our Privacy and Cookie Policy.